• In Österreich
  • Länderverzeichnis
  • Für 7 Tage
  • Wassertemperatur
  • Satellitenkarten
  • Wetterkarte
  • News
  • Widgets
  • user-avatar
    Anmelden

    Stündliche Wetter Toluca

    Heute, 22 Juni, Freitag

    Zeit Temperatur Niederschläge Wind Luftdruck Luftfeuchtigkeit
    00:00 +11°C° 0 mm 1 m/S 551 mmHg 89%
    01:00 +11°C° 0 mm 1 m/S 551 mmHg 90%
    02:00 +11°C° 0 mm 1 m/S 551 mmHg 90%
    03:00 +11°C° 0 mm 1 m/S 551 mmHg 90%
    04:00 +10°C° 0 mm 1 m/S 551 mmHg 90%
    05:00 +10°C° 0 mm 1 m/S 551 mmHg 90%
    06:00 +12°C° 0 mm 1 m/S 552 mmHg 82%
    07:00 +14°C° 0 mm 1 m/S 553 mmHg 75%
    08:00 +16°C° 0 mm 1 m/S 554 mmHg 67%
    09:00 +18°C° 0,3 mm 1 m/S 555 mmHg 64%
    10:00 +18°C° 0,3 mm 2 m/S 555 mmHg 60%
    11:00 +19°C° 0,3 mm 2 m/S 555 mmHg 57%
    12:00 +19°C° 1,3 mm 2 m/S 555 mmHg 59%
    13:00 +19°C° 1,3 mm 2 m/S 554 mmHg 61%
    14:00 +19°C° 1,3 mm 2 m/S 554 mmHg 63%
    15:00 +18°C° 1,5 mm 2 m/S 553 mmHg 68%
    16:00 +17°C° 1,5 mm 2 m/S 552 mmHg 73%
    17:00 +16°C° 1,5 mm 2 m/S 552 mmHg 78%
    18:00 +15°C° 1 mm 1 m/S 552 mmHg 80%
    19:00 +14°C° 1 mm 1 m/S 552 mmHg 83%
    20:00 +13°C° 1 mm 1 m/S 552 mmHg 85%
    21:00 +13°C° 0,2 mm 1 m/S 552 mmHg 85%
    22:00 +13°C° 0,2 mm 1 m/S 552 mmHg 85%
    23:00 +12°C° 0,2 mm 1 m/S 552 mmHg 84%

    Morgen, 23 Juni, Samstag

    Zeit Temperatur Niederschläge Wind Luftdruck Luftfeuchtigkeit
    00:00 +12°C° 0 mm 1 m/S 552 mmHg 85%
    01:00 +12°C° 0 mm 1 m/S 552 mmHg 85%
    02:00 +12°C° 0 mm 1 m/S 551 mmHg 86%
    03:00 +11°C° 0 mm 1 m/S 551 mmHg 86%
    04:00 +11°C° 0 mm 1 m/S 551 mmHg 86%
    05:00 +11°C° 0 mm 1 m/S 551 mmHg 87%
    06:00 +13°C° 0,2 mm 1 m/S 552 mmHg 81%
    07:00 +13°C° 0,2 mm 0 m/S 553 mmHg 75%
    08:00 +15°C° 0,2 mm 0 m/S 554 mmHg 69%
    09:00 +19°C° 1 mm 1 m/S 555 mmHg 66%
    10:00 +20°C° 1 mm 1 m/S 555 mmHg 62%
    11:00 +21°C° 1 mm 1 m/S 556 mmHg 59%
    12:00 +21°C° 1,4 mm 1 m/S 555 mmHg 60%
    13:00 +19°C° 1,4 mm 2 m/S 554 mmHg 62%
    14:00 +19°C° 1,4 mm 2 m/S 553 mmHg 63%
    15:00 +18°C° 1,8 mm 2 m/S 553 mmHg 68%
    16:00 +18°C° 1,8 mm 1 m/S 552 mmHg 73%
    17:00 +16°C° 1,8 mm 1 m/S 551 mmHg 77%
    18:00 +15°C° 1 mm 1 m/S 552 mmHg 80%
    19:00 +14°C° 1 mm 1 m/S 552 mmHg 82%
    20:00 +13°C° 1 mm 1 m/S 552 mmHg 85%
    21:00 +13°C° 0,7 mm 1 m/S 552 mmHg 85%
    22:00 +13°C° 0,7 mm 1 m/S 552 mmHg 86%
    23:00 +13°C° 0,7 mm 1 m/S 552 mmHg 86%

    übermorgen, 24 Juni, Sonntag

    Zeit Temperatur Niederschläge Wind Luftdruck Luftfeuchtigkeit
    00:00 +12°C° 0,6 mm 1 m/S 552 mmHg 87%
    01:00 +12°C° 0,6 mm 1 m/S 551 mmHg 87%
    02:00 +12°C° 0,6 mm 1 m/S 551 mmHg 88%
    03:00 +12°C° 0,1 mm 1 m/S 551 mmHg 88%
    04:00 +11°C° 0,1 mm 1 m/S 551 mmHg 87%
    05:00 +11°C° 0,1 mm 1 m/S 550 mmHg 87%
    06:00 +13°C° 0 mm 1 m/S 552 mmHg 81%
    07:00 +15°C° 0 mm 1 m/S 553 mmHg 75%
    08:00 +18°C° 0 mm 1 m/S 554 mmHg 69%
    09:00 +19°C° 0,6 mm 1 m/S 555 mmHg 67%
    10:00 +20°C° 0,6 mm 1 m/S 555 mmHg 64%
    11:00 +20°C° 0,6 mm 2 m/S 555 mmHg 62%
    12:00 +20°C° 1,8 mm 2 m/S 554 mmHg 63%
    13:00 +19°C° 1,8 mm 2 m/S 554 mmHg 65%
    14:00 +19°C° 1,8 mm 2 m/S 553 mmHg 66%
    15:00 +18°C° 2,4 mm 2 m/S 552 mmHg 72%
    16:00 +18°C° 2,4 mm 1 m/S 552 mmHg 77%
    17:00 +16°C° 2,4 mm 1 m/S 551 mmHg 83%
    18:00 +15°C° 1,5 mm 1 m/S 551 mmHg 84%
    19:00 +14°C° 1,5 mm 1 m/S 551 mmHg 85%
    20:00 +13°C° 1,5 mm 1 m/S 551 mmHg 87%
    21:00 +13°C° 1 mm 1 m/S 552 mmHg 87%
    22:00 +13°C° 1 mm 1 m/S 552 mmHg 87%
    23:00 +13°C° 1 mm 1 m/S 552 mmHg 87%

    25 Juni, Montag

    Zeit Temperatur Niederschläge Wind Luftdruck Luftfeuchtigkeit
    00:00 +12°C° 0,3 mm 1 m/S 552 mmHg 88%
    01:00 +12°C° 0,3 mm 1 m/S 551 mmHg 88%
    02:00 +11°C° 0,3 mm 0 m/S 551 mmHg 88%
    03:00 +11°C° 0,3 mm 0 m/S 551 mmHg 89%
    04:00 +11°C° 0,3 mm 0 m/S 551 mmHg 91%
    05:00 +11°C° 0,3 mm 0 m/S 551 mmHg 92%
    06:00 +12°C° 1 mm 1 m/S 552 mmHg 90%
    07:00 +13°C° 1 mm 1 m/S 553 mmHg 87%
    08:00 +14°C° 1 mm 1 m/S 554 mmHg 85%
    09:00 +14°C° 0,6 mm 1 m/S 554 mmHg 82%
    10:00 +15°C° 0,6 mm 1 m/S 554 mmHg 78%
    11:00 +16°C° 0,6 mm 1 m/S 554 mmHg 75%
    12:00 +18°C° 0,4 mm 1 m/S 554 mmHg 72%
    13:00 +19°C° 0,4 mm 1 m/S 554 mmHg 69%
    14:00 +19°C° 0,4 mm 1 m/S 554 mmHg 66%
    15:00 +19°C° 0,9 mm 1 m/S 553 mmHg 70%
    16:00 +18°C° 0,9 mm 1 m/S 553 mmHg 73%
    17:00 +18°C° 0,9 mm 1 m/S 553 mmHg 77%
    18:00 +15°C° 0,9 mm 1 m/S 553 mmHg 80%
    19:00 +14°C° 0,9 mm 1 m/S 553 mmHg 84%
    20:00 +13°C° 0,9 mm 1 m/S 552 mmHg 87%
    21:00 +13°C° 0,2 mm 1 m/S 552 mmHg 87%
    22:00 +12°C° 0,2 mm 1 m/S 552 mmHg 86%
    23:00 +12°C° 0,2 mm 1 m/S 552 mmHg 86%

    26 Juni, Dienstag

    Zeit Temperatur Niederschläge Wind Luftdruck Luftfeuchtigkeit
    00:00 +12°C° 0 mm 1 m/S 552 mmHg 86%
    01:00 +11°C° 0 mm 1 m/S 552 mmHg 86%
    02:00 +11°C° 0 mm 1 m/S 551 mmHg 86%
    03:00 +11°C° 0 mm 1 m/S 551 mmHg 86%
    04:00 +11°C° 0 mm 1 m/S 551 mmHg 86%
    05:00 +10°C° 0 mm 1 m/S 552 mmHg 86%
    06:00 +12°C° 0 mm 0 m/S 553 mmHg 80%
    07:00 +14°C° 0 mm 0 m/S 554 mmHg 75%
    08:00 +16°C° 0 mm 0 m/S 556 mmHg 69%
    09:00 +19°C° 0,4 mm 1 m/S 556 mmHg 66%
    10:00 +20°C° 0,4 mm 1 m/S 556 mmHg 62%
    11:00 +20°C° 0,4 mm 2 m/S 556 mmHg 59%
    12:00 +20°C° 1 mm 2 m/S 556 mmHg 59%
    13:00 +19°C° 1 mm 2 m/S 555 mmHg 60%
    14:00 +19°C° 1 mm 2 m/S 554 mmHg 61%
    15:00 +19°C° 1 mm 1 m/S 554 mmHg 65%
    16:00 +19°C° 1 mm 1 m/S 553 mmHg 69%
    17:00 +18°C° 1 mm 1 m/S 553 mmHg 74%
    18:00 +16°C° 0,7 mm 1 m/S 553 mmHg 77%
    19:00 +15°C° 0,7 mm 1 m/S 553 mmHg 80%
    20:00 +14°C° 0,7 mm 1 m/S 553 mmHg 83%
    21:00 +13°C° 0,7 mm 1 m/S 553 mmHg 84%
    22:00 +12°C° 0,7 mm 0 m/S 553 mmHg 85%
    23:00 +12°C° 0,7 mm 0 m/S 553 mmHg 85%

    27 Juni, Mittwoch

    Zeit Temperatur Niederschläge Wind Luftdruck Luftfeuchtigkeit
    00:00 +12°C° 0,5 mm 0 m/S 553 mmHg 86%
    01:00 +12°C° 0,5 mm 0 m/S 552 mmHg 87%
    02:00 +12°C° 0,5 mm 1 m/S 552 mmHg 87%
    03:00 +11°C° 0,1 mm 0 m/S 552 mmHg 88%
    04:00 +11°C° 0,1 mm 0 m/S 552 mmHg 88%
    05:00 +10°C° 0,1 mm 0 m/S 552 mmHg 88%
    06:00 +13°C° 0 mm 1 m/S 553 mmHg 82%
    07:00 +15°C° 0 mm 1 m/S 554 mmHg 77%
    08:00 +18°C° 0 mm 1 m/S 555 mmHg 71%
    09:00 +19°C° 0,3 mm 1 m/S 555 mmHg 66%
    10:00 +20°C° 0,3 mm 1 m/S 556 mmHg 62%
    11:00 +21°C° 0,3 mm 2 m/S 556 mmHg 58%
    12:00 +20°C° 1,3 mm 2 m/S 555 mmHg 59%
    13:00 +21°C° 1,3 mm 1 m/S 555 mmHg 60%
    14:00 +21°C° 1,3 mm 1 m/S 554 mmHg 62%
    15:00 +20°C° 1,3 mm 1 m/S 553 mmHg 66%
    16:00 +19°C° 1,3 mm 1 m/S 553 mmHg 70%
    17:00 +18°C° 1,3 mm 1 m/S 553 mmHg 74%
    18:00 +16°C° 0,9 mm 1 m/S 552 mmHg 77%
    19:00 +15°C° 0,9 mm 1 m/S 552 mmHg 80%
    20:00 +13°C° 0,9 mm 0 m/S 552 mmHg 83%
    21:00 +12°C° 0,6 mm 0 m/S 552 mmHg 84%
    22:00 +12°C° 0,6 mm 0 m/S 552 mmHg 85%
    23:00 +12°C° 0,6 mm 0 m/S 552 mmHg 86%
    Mehr zeigen